Notices

What's New in latest Release from April 7th, 2021:

- Updated Glossary, including Speed of Maximum Gust, and Total Hourly Precipitation

- Updated national and regional climate services offices contacts and prices information

- Addition of station inventory lists for 1981-2010, 1971-2000, and 1961-1990 Normals.

If you haven't already, please take our survey and provide feedback about our website: https://eccc.sondage-survey.ca/f/LanguageSelection.aspx?s=442ca660-fcf1-47c0-95a9-59707d6fd709

Hourly Data Report for October 25, 2004

SHERBROOKE A
QUEBEC

45°26'00.000" N
71°41'00.000" W
241.40 m
7028124
71610
YSC

Download Data

Hourly Data (October 2004)
Hourly Data Report for October 25, 2004
TIME
LST
Temp Definition
°C
Dew Point Definition
°C
Rel Hum Definition
%
Precip. Amount Definition
mm

Wind Dir Definition
10's deg

Wind Spd Definition
km/h
Visibility Definition
km
Stn Press Definition
kPa
Hmdx Definition


Wind Chill Definition


Weather Definition


00:00 -0.1 -1.5 90   6 4 15.0 98.98   -1  
01:00 1.4 -0.3 88   8 6 15.0 98.98      
02:00 1.5 -0.1 89     0 15.0 98.98      
03:00 2.2 0.0 85     0 15.0 98.97      
04:00 2.3 0.0 85   9 4 15.0 99.00      
05:00 2.5 0.3 85     0 15.0 99.00      
06:00 2.6 0.5 86   6 6 15.0 99.02      
07:00 3.0 0.8 85   7 6 24.1 99.06     Mostly Cloudy
08:00 3.7 1.3 84   9 7 24.1 99.08     Mostly Cloudy
09:00 4.3 1.4 81   10 4 24.1 99.08     Mostly Cloudy
10:00 6.3 2.7 78     0 24.1 99.02     Mostly Cloudy
11:00 7.5 2.9 73   2 4 24.1 99.00     Mostly Cloudy
12:00 7.9 1.9 66   1 4 24.1 98.96     Cloudy
13:00 8.3 2.3 66   34 7 24.1 98.94     Cloudy
14:00 8.2 1.6 63     0 24.1 98.94     Cloudy
15:00 8.0 2.0 66   28 6 24.1 98.93     Cloudy
16:00 7.9 2.2 67   30 4 24.1 98.96     Cloudy
17:00 7.2 2.0 69   32 7 15.0 99.00      
18:00 6.7 1.9 71   32 6 15.0 99.02      
19:00 6.1 2.0 75   26 4 15.0 99.05      
20:00 3.1 0.8 85   30 4 15.0 99.04      
21:00 0.3 -1.4 88     0 15.0 99.04      
22:00 0.0 -1.7 88     0 15.0 99.05      
23:00 -0.1 -1.3 92   27 4 12.9 99.06   -1  

Notes on Data Quality.

Legend

  • E = Estimated
  • M = Missing
  • NA = Not Available*
  • [empty] = Indicates an unobserved value
Date modified: